This is the latest recevied weather packets stored in our database for station/object KC3AWA. If no packets are shown the sender has not sent any weather packets the latest 10 day(s).
| Time | Temp. | Humidity | Pressure | Rain* | Wind** | Luminosity | Snow |
|---|---|---|---|---|---|---|---|
| 1777773633 | 2.78° C | 74% | 1017.2 hPa | 0 mm | - | 0 W/m² | - |
| 1777773329 | 2.78° C | 75% | 1017.1 hPa | 0 mm | - | 0 W/m² | - |
| 1777773027 | 2.78° C | 73% | 1017.2 hPa | 0 mm | - | 0 W/m² | - |
| 1777772722 | 2.78° C | 75% | 1016.9 hPa | 0 mm | - | 0 W/m² | - |
| 1777772421 | 2.78° C | 72% | 1017 hPa | 0 mm | - | 0 W/m² | - |
| 1777772118 | 2.78° C | 73% | 1017.1 hPa | 0 mm | - | 0 W/m² | - |
| 1777771815 | 2.78° C | 72% | 1017 hPa | 0 mm | - | 0 W/m² | - |
| 1777771513 | 2.78° C | 69% | 1016.9 hPa | 0 mm | - | 0 W/m² | - |
| 1777771209 | 2.78° C | 69% | 1017 hPa | 0 mm | - | 0 W/m² | - |
| 1777770906 | 3.33° C | 69% | 1016.9 hPa | 0 mm | - | 0 W/m² | - |
| 1777770603 | 3.33° C | 69% | 1016.7 hPa | 0 mm | - | 0 W/m² | - |
| 1777770299 | 3.33° C | 66% | 1017 hPa | 0 mm | - | 0 W/m² | - |
| 1777769996 | 3.33° C | 68% | 1016.9 hPa | 0 mm | - | 0 W/m² | - |
| 1777769693 | 3.33° C | 69% | 1017 hPa | 0 mm | - | 0 W/m² | - |
| 1777769390 | 3.33° C | 68% | 1016.8 hPa | 0 mm | - | 0 W/m² | - |
| 1777769087 | 3.33° C | 67% | 1016.7 hPa | 0 mm | - | 0 W/m² | - |
| 1777768785 | 3.33° C | 67% | 1016.8 hPa | 0 mm | - | 0 W/m² | - |
| 1777768481 | 3.89° C | 65% | 1016.7 hPa | 0 mm | - | 0 W/m² | - |
| 1777768178 | 3.89° C | 65% | 1016.8 hPa | 0 mm | - | 0 W/m² | - |
| 1777767875 | 3.89° C | 65% | 1016.7 hPa | 0 mm | - | 1 W/m² | - |
| 1777767572 | 3.89° C | 65% | 1016.7 hPa | 0 mm | - | 2 W/m² | - |
| 1777767268 | 3.89° C | 63% | 1016.5 hPa | 0 mm | - | 3 W/m² | - |
| 1777766966 | 3.89° C | 62% | 1016.8 hPa | 0 mm | - | 4 W/m² | - |
| 1777766663 | 3.89° C | 63% | 1016.4 hPa | 0 mm | - | 4 W/m² | - |
| 1777766360 | 3.89° C | 62% | 1016.6 hPa | 0 mm | - | 5 W/m² | - |
* Rain latest hour (hover to see other rain measurements)
** Current wind speed in m/s (hover to see current wind gust speed)